OPS 4682 DEB, 38429

Orbit data source: Space-Track

OPS 4682 DEB, 38429 is space debris in LEO originally from a launch on Sat, 03 Apr 1965 UTC launched from the Air Force Western Test Range (AFWTR). Debris objects in space refer to the collection of defunct objects orbiting the Earth. Examples of debris include non-operational satellites, rocket bodies, and fragments generated from explosions, collisions, or faulty payload assembly.

Loading next visibility...
Identifier
38429, 1965-027EJ
Orbit
LEO
Country
Flag of USUS
Related business
Manufacturer
Unknown
Mission
Spacecraft
Bus & Motor
Unknown
Mass
Unknown
Launch date (UTC)
1965-04-03 (61 years ago)
Launch vehicle
Unknown
Launch site
Air Force Western Test Range (AFWTR)
Object type
Payload
Rocket body
Debris
Shape & HBR
Unknown shape, 0.1 m
Radar Cross Section
Small (<0.1 m²)

Expand to show TLE details & history
Last TLE update: 4 days ago

TLE from 4 days ago
0 OPS 4682 DEB
1 38429U 65027EJ  26131.38814437  .00000906  00000-0  30619-2 0  9993
2 38429  90.2357 359.9559 0042246 129.3444 231.1433 12.97988496584641
Epoch: 2026-05-11T09:18Z
TLE epoch observation values (Epoch: 2026-05-11T09:18:55.673Z)
Latitude
-0.00001°
Longitude
-8.95366°
Altitude
1,293.216 km
Speed
7.2 km/s
True Right ascension
23h 59m 49s
True Declination
0° 00' 00"
Sunlit
Object was in daylight at epoch
Visualization orbit readout
Latitude
Unknown
Longitude
Unknown
Altitude
Unknown
Speed
Unknown
Apparent Right ascension
Unknown
Apparent Declination
Unknown
Sunlit
N/A
Visualization observer readout
Local Sidereal Time
19:41:14
Azimuth
Unknown
Elevation
Unknown
Doppler factor
Unknown
Orbital elements
Apogee altitude
1,299.406 km
Perigee altitude
1,234.81 km
Semi-major axis
7,645.245 km
Eccentricity
0.00422
Inclination
90.2357°
RAAN
359.9559°
Arg. of periapsis
129.3444°
True anomaly
230.76757°
Mean anomaly
231.1433°
Eccentric anomaly
230.95531°
Mean motion
3.2468 °/min
Orbital period
110.88 mins
BSTAR
0.0030619
Loading maneuver chart data...
Computing Atmospheric mass density...
Loading historical data...
Loading historical data...
Loading historical data...
Loading historical data...
Loading historical data...
Loading historical data...
Loading historical data...

Documentation

Showing up to 5 results
|